Terug naar catalogus

COSMOS 2498

ActiefNavigatiePO
NORAD 39763·PAYLOAD·🇷🇺 Russia

Gelanceerd May 23, 2014 vanaf Plesetsk Cosmodrome

Loading…

Volgende Passages (komende 24 uur)

TLE

VersSource: Space-Track

Epoch: Sep 14, 2026, 21:13 UTC

1 39763U 14028C   26257.88405597  .00000016  00000-0  48645-4 0  9999
2 39763  82.4444  52.6992 0020569 237.4532 122.4561 12.42983076558693

Volg COSMOS 2498 in realtime met AllMySat

Download on the App Store